Back to catalog

STARLINK-36400

AliveCommunicationsSSO
NORAD 67575·PAYLOAD·🇺🇸 United States

Launched Jan 25, 2026 from Vandenberg Space Force Base

Loading…

Next Passes (next 24 hours)

TLE

FreshSource: CelesTrak SupGP

Epoch: Sep 14, 2026, 21:00 UTC

1 67575C 26016Q   26257.87548611 -.00028107  00000+0 -87234-3 0  2570
2 67575  97.2843 316.6109 0000904  94.1661  59.0594 15.33460484    12

Track STARLINK-36400 in real time with AllMySat

Download on the App Store